Wind_Speed
64 64 65 67 67 65 64 67 68 69 69 68 70 69 71 74 77 78 79 81 81 83 84 84 80 73 67 63 62 59 60 60 59 57 50 42 37 37 39 41 44 46 48 54
65 64 60 63 63 62 63 62 61 63 66 66 71 74 74 76 77 78 78 78 78 76 68 61 58 58 58 57 57 56 55 51 41 34 30 30 29 30 32 36 40 45 48 53
65 65 66 67 66 68 69 70 71 71 71 70 70 74 75 75 75 75 74 69 64 65 62 60 56 58 57 56 54 50 36 27 28 26 23 23 25 29 32 35 37 43 50 55
61 61 62 65 66 67 67 68 69 71 71 72 74 74 74 71 68 65 64 64 64 61 59 56 56 55 51 45 37 21 21 22 18 15 17 20 24 28 30 33 35 38 43 47
55 56 59 60 61 63 67 68 70 71 69 67 69 66 63 61 62 63 64 62 60 58 55 50 46 38 29 19 17 16 10 9 10 14 19 21 26 29 32 37 39 40 38 37
52 55 57 60 64 66 67 67 64 62 59 55 55 57 61 63 63 62 61 57 50 42 35 27 17 13 13 10 5 4 3 9 16 18 21 23 27 30 35 39 43 45 45 41
41 45 46 49 50 49 48 46 46 46 49 53 57 60 61 60 54 47 37 28 20 13 10 8 4 1 3 1 3 7 12 18 18 20 22 26 30 36 39 41 44 47 49 53
30 32 33 33 35 38 40 42 44 46 39 32 25 18 13 10 8 7 8 8 6 4 3 4 5 7 10 13 13 16 16 15 18 20 24 27 32 36 40 41 44 46 50 51
27 29 32 35 37 34 30 23 20 21 21 16 10 7 5 5 4 4 5 7 9 8 9 14 16 18 16 18 18 17 17 18 22 25 27 28 31 34 34 40 41 44 47 49
11 11 10 11 10 10 9 7 7 8 8 8 7 9 11 11 11 13 16 19 20 21 20 19 18 16 14 15 16 17 18 21 26 30 31 30 33 36 38 42 40 44 46 46
10 11 12 13 14 15 15 16 16 16 17 19 20 21 23 24 24 24 24 23 21 18 15 15 14 13 14 18 22 23 23 27 30 32 31 32 37 40 43 45 46 46 46 48
28 27 28 28 28 26 25 24 23 24 25 23 23 24 24 23 21 19 17 16 15 13 12 11 14 18 19 23 25 25 23 26 29 33 33 37 40 42 46 49 49 47 47 48
25 22 21 22 20 20 20 22 21 19 17 17 15 14 13 12 11 9 7 6 6 10 13 14 16 18 18 23 24 27 27 29 35 37 38 39 38 42 47 49 46 46 51 51
16 15 13 11 9 8 8 10 11 12 11 12 13 9 5 3 1 1 3 5 7 11 15 16 16 17 18 19 23 23 22 25 27 32 35 35 36 39 41 42 44 46 49 52
9 9 10 9 7 5 5 3 3 1 2 1 1 1 5 5 7 9 10 13 14 16 18 17 17 17 20 23 24 25 25 28 30 31 37 35 38 41 42 42 42 46 50 53
5 5 6 8 8 8 8 8 5 5 5 8 10 12 13 12 16 16 19 21 22 23 25 26 25 26 29 29 29 30 31 33 33 37 40 41 42 46 49 50 52 52 52 53
14 15 16 19 12 18 19 17 19 19 16 18 16 14 15 20 25 26 26 25 27 28 29 26 24 28 30 33 33 35 36 39 42 45 46 43 46 49 50 52 54 54 54 54
25 23 22 27 27 23 26 26 25 25 24 25 28 31 31 29 32 36 37 35 36 34 34 34 35 37 39 40 40 43 47 46 46 50 50 52 55 57 58 60 60 59 65 68
33 33 33 34 37 36 36 38 35 35 33 34 38 38 36 41 46 47 47 48 47 46 47 44 43 47 50 51 51 54 56 56 56 59 62 63 65 66 67 67 70 72 75 73
41 39 40 40 40 40 46 45 45 48 46 46 46 50 51 51 47 50 51 54 53 52 52 54 60 61 61 61 63 63 65 69 70 71 73 72 72 74 75 77 78 80 82 83
49 47 46 48 45 48 51 54 52 51 49 48 54 56 56 54 56 58 64 65 63 61 64 66 69 69 69 69 71 71 74 78 80 80 80 81 80 82 85 85 87 88 91 92
54 56 55 56 57 56 59 60 60 58 57 58 59 59 60 61 63 66 63 65 66 67 69 70 72 74 78 81 82 84 87 88 89 88 90 89 87 90 93 95 95 97 96 98
62 64 62 64 65 67 67 67 68 68 67 67 68 71 69 68 69 72 74 79 81 82 79 79 81 83 88 91 92 91 93 94 95 96 98 98 99 101 102 103 105 104 105 106
68 69 71 75 76 75 73 74 70 71 75 79 81 79 76 76 78 79 80 82 86 88 89 90 88 90 94 97 99 99 100 100 98 100 102 104 104 107 109 111 111 110 113 111
80 82 85 80 83 81 82 86 85 83 85 86 86 85 87 83 81 84 86 87 88 90 95 96 95 99 101 103 105 107 107 107 105 106 106 108 111 113 114 115 115 119 119 110
93 97 94 91 95 93 93 93 95 94 94 95 96 95 97 97 95 95 95 95 95 96 98 100 104 105 107 109 110 112 113 112 112 114 114 116 118 119 119 120 115 111 103 95
Wind_Direction
237 239 241 244 248 251 256 261 263 266 268 270 272 273 274 276 279 279 280 282 282 283 285 287 287 288 289 292 293 292 291 294 294 297 296 299 300 298 296 296 298 299 298 294
235 235 238 246 249 250 254 258 259 263 266 268 271 273 274 276 277 278 280 282 284 286 288 289 290 290 291 293 295 296 296 299 299 299 302 299 301 306 311 312 315 316 312 308
232 236 240 244 248 253 256 258 262 265 267 269 271 273 275 276 277 278 281 284 286 288 289 290 291 290 292 294 295 295 300 296 301 301 305 318 322 322 328 328 322 318 315 315
236 240 244 249 252 255 258 262 264 266 269 271 273 275 276 277 278 280 281 285 287 287 288 288 287 291 294 291 292 302 298 298 298 314 335 342 343 346 343 339 336 334 327 321
241 247 250 253 257 260 262 265 267 269 272 273 275 275 276 276 278 282 283 283 283 284 284 286 290 289 290 294 299 292 283 297 340 12 19 14 12 6 3 359 355 352 351 343
244 248 251 254 258 262 264 266 268 272 273 273 274 276 278 278 279 280 280 280 280 280 283 288 289 291 298 287 257 256 12 34 40 33 27 20 13 5 5 359 356 357 360 4
247 250 253 255 258 261 264 265 267 272 276 278 279 279 276 277 277 275 274 271 273 280 273 279 291 219 166 133 86 69 52 47 39 25 21 14 12 10 5 1 359 360 2 5
240 245 249 254 259 263 267 271 273 278 281 279 277 273 268 263 258 251 251 246 236 232 137 116 125 118 99 79 58 51 49 45 37 28 25 24 19 18 13 8 4 2 6 10
257 259 260 263 266 267 269 263 259 262 270 274 268 256 227 209 189 161 135 125 118 116 103 108 90 74 70 66 60 47 39 35 28 20 18 15 16 17 12 9 9 11 12 11
235 236 239 242 244 244 245 246 236 226 200 174 140 113 104 104 105 109 105 93 87 83 78 79 79 74 65 56 44 33 26 19 13 9 6 6 7 4 2 2 5 4 6 6
138 133 129 128 123 120 121 127 128 122 109 104 98 95 93 91 92 89 91 93 95 92 81 70 62 53 44 28 17 11 8 5 1 357 354 355 359 357 354 354 356 358 0 359
111 109 106 105 106 105 104 101 98 95 93 91 91 91 88 88 87 82 83 82 75 63 50 34 15 12 14 4 354 359 351 347 347 348 346 348 349 352 350 350 351 350 353 354
114 112 112 112 114 108 106 105 101 100 98 98 94 100 102 104 103 97 91 72 27 358 352 348 347 348 341 349 342 341 342 340 338 337 338 337 334 339 340 338 344 346 345 343
124 123 123 125 124 116 116 106 102 91 83 73 77 80 74 71 79 19 14 15 348 356 352 345 333 327 322 322 324 316 313 319 328 328 328 331 334 334 331 333 336 336 334 337
165 165 165 168 166 160 158 148 131 69 66 79 120 273 325 304 311 320 318 328 326 330 338 330 323 321 326 325 327 326 324 325 327 326 327 325 323 326 330 327 325 329 329 327
228 245 261 280 272 248 255 269 266 253 264 267 272 259 257 263 280 287 301 307 307 310 316 317 319 320 319 321 321 320 317 317 322 325 327 329 322 317 323 324 324 325 323 321
255 261 265 271 269 279 292 280 270 274 269 274 281 283 271 268 272 277 288 296 300 307 309 312 317 318 314 316 317 315 313 313 315 316 318 319 318 319 320 319 320 323 322 319
267 266 266 271 278 281 280 278 280 278 275 283 281 280 278 278 278 286 293 297 300 300 302 302 304 306 309 309 308 308 307 304 306 307 312 311 312 313 314 314 315 319 321 321
271 272 272 270 279 277 278 279 279 281 280 282 286 290 283 278 275 277 288 295 297 299 297 293 297 300 302 303 305 304 306 306 307 308 309 310 308 308 309 310 311 312 314 316
274 272 274 271 276 277 283 284 288 284 284 279 282 286 284 282 283 280 281 286 288 288 287 292 297 298 300 302 304 304 304 307 307 306 306 307 307 308 309 310 309 310 312 311
280 280 277 275 279 281 279 282 282 283 283 281 278 278 278 280 282 283 287 286 286 286 288 292 295 296 297 298 302 302 304 305 304 303 303 305 305 306 307 307 307 307 309 309
276 277 277 280 280 277 277 279 281 283 283 281 280 277 277 276 278 282 280 285 287 289 290 291 293 294 295 297 299 301 301 302 302 302 302 301 301 301 302 303 303 303 303 304
275 277 276 278 277 277 278 279 279 282 282 283 285 282 280 280 280 280 282 285 285 284 285 289 289 291 294 296 296 295 296 298 299 299 299 299 298 299 301 300 300 301 301 302
274 275 274 274 275 275 275 277 278 278 280 281 281 281 280 280 279 279 280 280 280 281 282 283 286 287 291 292 293 292 291 290 291 292 293 294 295 295 296 296 296 297 297 299
276 275 272 274 273 273 275 274 275 277 276 275 276 276 279 278 276 277 279 276 277 279 279 279 281 284 287 289 291 291 291 291 292 292 294 294 294 294 296 297 296 297 295 294
275 272 274 276 277 277 274 272 273 273 273 273 275 278 279 279 278 279 280 279 278 278 276 277 279 282 285 289 293 295 297 296 296 296 296 295 293 295 296 297 297 296 291 291
Height
10705 10709 10713 10716 10720 10723 10724 10725 10727 10728 10730 10731 10729 10728 10724 10725 10723 10717 10714 10711 10707 10702 10697 10692 10686 10682 10677 10673 10668 10664 10659 10654 10650 10647 10642 10638 10632 10627 10622 10617 10610 10604 10596 10584
10697 10702 10706 10708 10711 10714 10716 10717 10718 10718 10718 10721 10716 10714 10713 10710 10708 10706 10701 10696 10693 10688 10683 10678 10674 10670 10665 10661 10656 10653 10649 10645 10641 10638 10635 10631 10627 10622 10616 10610 10602 10593 10585 10574
10689 10694 10698 10700 10703 10705 10706 10707 10708 10708 10706 10708 10706 10699 10699 10696 10694 10691 10687 10683 10679 10676 10671 10667 10664 10658 10655 10651 10647 10643 10641 10638 10636 10633 10630 10626 10620 10615 10610 10604 10598 10589 10578 10566
10684 10688 10690 10692 10693 10695 10696 10696 10696 10695 10694 10692 10689 10687 10685 10682 10679 10677 10675 10672 10668 10663 10659 10656 10652 10648 10647 10642 10639 10638 10636 10635 10633 10629 10626 10621 10617 10612 10607 10601 10593 10583 10571 10560
10679 10682 10683 10684 10685 10685 10685 10684 10682 10681 10680 10679 10676 10676 10670 10669 10667 10665 10663 10661 10656 10652 10649 10645 10642 10639 10637 10636 10635 10634 10634 10632 10629 10626 10622 10619 10614 10609 10603 10596 10587 10577 10565 10552
10671 10672 10673 10674 10675 10674 10673 10671 10670 10670 10669 10667 10665 10662 10657 10653 10653 10652 10650 10648 10645 10642 10639 10637 10636 10635 10634 10633 10633 10632 10631 10628 10625 10623 10619 10616 10612 10607 10600 10593 10584 10572 10560 10548
10663 10664 10664 10664 10664 10663 10663 10663 10662 10662 10659 10656 10652 10647 10644 10641 10640 10639 10638 10637 10636 10636 10636 10634 10634 10633 10633 10634 10633 10632 10629 10626 10625 10623 10619 10616 10611 10604 10598 10591 10582 10571 10559 10547
10656 10657 10657 10658 10658 10658 10656 10656 10655 10653 10651 10646 10641 10637 10634 10633 10633 10633 10634 10634 10634 10634 10634 10634 10634 10635 10636 10636 10635 10632 10630 10628 10625 10623 10619 10614 10608 10602 10598 10590 10581 10571 10561 10550
10653 10653 10654 10653 10653 10651 10650 10648 10648 10648 10646 10643 10640 10637 10635 10634 10634 10633 10633 10634 10635 10635 10636 10637 10637 10637 10637 10636 10634 10632 10630 10628 10626 10623 10619 10614 10608 10602 10597 10590 10581 10573 10564 10555
10650 10650 10650 10650 10649 10648 10647 10646 10646 10646 10645 10643 10641 10639 10637 10637 10637 10637 10638 10638 10639 10639 10640 10640 10639 10639 10638 10636 10634 10632 10630 10627 10624 10620 10616 10612 10606 10602 10595 10589 10581 10574 10566 10558
10651 10651 10651 10650 10650 10650 10650 10650 10650 10649 10647 10646 10645 10644 10644 10644 10643 10643 10643 10643 10643 10643 10643 10642 10640 10639 10638 10636 10633 10630 10628 10625 10622 10618 10614 10609 10605 10600 10594 10587 10580 10573 10567 10561
10656 10657 10657 10657 10657 10657 10657 10656 10655 10654 10653 10652 10651 10651 10650 10649 10648 10648 10647 10646 10645 10644 10643 10641 10640 10638 10635 10633 10631 10629 10626 10623 10619 10616 10612 10607 10601 10596 10591 10585 10579 10572 10566 10560
10663 10663 10663 10663 10663 10662 10661 10660 10659 10659 10657 10656 10655 10654 10652 10650 10649 10648 10646 10645 10644 10642 10641 10639 10637 10635 10632 10629 10627 10625 10622 10618 10614 10611 10607 10602 10597 10593 10588 10582 10576 10569 10564 10557
10668 10667 10667 10667 10666 10665 10664 10663 10661 10660 10659 10658 10656 10654 10652 10650 10647 10646 10645 10643 10642 10641 10638 10636 10633 10631 10628 10626 10623 10620 10617 10613 10610 10606 10602 10598 10593 10588 10583 10578 10572 10567 10561 10555
10670 10670 10669 10668 10667 10666 10665 10664 10662 10661 10659 10657 10655 10653 10650 10649 10647 10645 10643 10640 10638 10636 10634 10631 10629 10626 10623 10620 10617 10614 10610 10607 10604 10600 10595 10590 10585 10580 10576 10571 10567 10562 10556 10550
10670 10669 10668 10667 10666 10665 10663 10662 10661 10659 10657 10654 10652 10650 10647 10645 10642 10639 10637 10634 10632 10629 10627 10624 10622 10619 10616 10613 10610 10606 10602 10598 10594 10591 10588 10583 10577 10571 10567 10563 10558 10554 10549 10544
10666 10664 10663 10661 10661 10660 10658 10657 10656 10654 10651 10649 10647 10644 10641 10638 10634 10632 10629 10626 10623 10621 10619 10617 10615 10611 10607 10604 10601 10597 10593 10589 10584 10580 10576 10572 10567 10562 10557 10553 10548 10544 10540 10535
10660 10659 10658 10655 10653 10653 10651 10649 10649 10647 10644 10642 10639 10636 10633 10629 10624 10620 10619 10617 10615 10613 10610 10607 10604 10600 10596 10594 10591 10586 10581 10577 10574 10569 10566 10561 10555 10550 10546 10541 10537 10532 10528 10523
10653 10651 10651 10648 10645 10644 10641 10638 10639 10638 10636 10633 10631 10628 10624 10620 10615 10609 10607 10605 10604 10602 10598 10595 10592 10588 10584 10581 10578 10573 10567 10564 10561 10556 10553 10548 10543 10538 10533 10527 10521 10517 10513 10508
10643 10641 10640 10638 10637 10634 10629 10626 10626 10625 10625 10622 10620 10617 10613 10608 10606 10599 10597 10593 10592 10589 10585 10583 10579 10573 10569 10566 10564 10559 10553 10549 10546 10539 10534 10530 10526 10521 10516 10511 10505 10499 10494 10489
10628 10628 10627 10625 10626 10623 10618 10613 10612 10612 10611 10609 10606 10602 10597 10595 10592 10589 10583 10579 10576 10573 10569 10563 10559 10555 10551 10549 10546 10541 10535 10530 10525 10519 10513 10508 10504 10500 10495 10491 10486 10480 10473 10467
10616 10613 10612 10611 10609 10607 10601 10599 10597 10596 10595 10592 10590 10585 10583 10580 10577 10573 10569 10565 10560 10555 10551 10546 10544 10538 10532 10528 10524 10519 10512 10507 10502 10497 10491 10485 10481 10476 10471 10466 10461 10456 10451 10445
10601 10596 10596 10593 10588 10584 10583 10584 10582 10580 10578 10573 10570 10566 10565 10562 10559 10555 10550 10544 10540 10536 10532 10527 10523 10518 10510 10506 10502 10500 10493 10487 10481 10475 10469 10462 10456 10450 10444 10439 10433 10429 10422 10417
10584 10577 10575 10569 10563 10561 10563 10560 10562 10559 10558 10554 10551 10549 10546 10543 10540 10534 10528 10524 10521 10516 10511 10507 10503 10497 10491 10484 10478 10475 10471 10466 10460 10454 10447 10441 10434 10426 10420 10413 10405 10401 10393 10387
10561 10556 10545 10552 10541 10542 10540 10535 10535 10534 10529 10526 10525 10523 10521 10520 10516 10512 10507 10503 10499 10493 10488 10483 10480 10473 10467 10460 10453 10446 10441 10437 10432 10424 10419 10412 10405 10397 10390 10383 10376 10369 10359 10353
10528 10521 10525 10532 10519 10523 10517 10510 10507 10505 10501 10497 10496 10494 10489 10487 10485 10483 10478 10474 10470 10466 10462 10457 10450 10445 10437 10431 10423 10415 10407 10402 10398 10391 10385 10378 10372 10363 10356 10349 10341 10331 10325 10319